364  
ASCA42 TJSJ 260710  
RWRPR  
PUERTO RICO/U.S. VIRGIN ISLANDS HOURLY WEATHER ROUNDUP  
NATIONAL WEATHER SERVICE SAN JUAN PR  
300 AM AST FRI MAY 26 2017  
 
PRZ001>002-007>008-010-260800-  
PUERTO RICO  
 
CITY SKY/WX TMP DP RH WIND PRES REMARKS
 
SAN JUAN LMM PTCLDY 79 72 78 SE5 30.03S  
PONCE PTCLDY 73 68 83 CALM 30.07  
CEIBA CLEAR 79 72 78 E7 30.04F  

 
 
VIZ001>002-260800-  
U.S. VIRGIN ISLANDS  
 
CITY SKY/WX TMP DP RH WIND PRES REMARKS
 
CHARLOTTE AMA PTCLDY 81 73 78 E8 30.01F  
CHRISTIANSTED CLEAR 75 72 88 NE7 30.01F  

 
 
HOURLY WEATHER ROUNDUP FOR THE NEWS MEDIA  
 
CITY SKY/WX TMP DP RH WIND PRES REMARKS
 
ORLANDO CLEAR 67 59 75 W6 29.97F  
NEW YORK LGT RAIN 57 57 100 NW8 29.47  
NEWARK LGT RAIN 56 56 100 N9 29.46R  
CHICAGO PTCLDY 53 49 86 CALM 29.78R  
HARTFORD LGT RAIN 52 52 100 VRB6 29.47F  
BOSTON DRIZZLE 50 49 96 N7 29.56R FOG  
DALLAS MOCLDY 76 64 66 S15 29.67S  
PHILADELPHIA LGT RAIN 59 57 93 W8 29.53  
LOS ANGELES MOCLDY 61 54 77 W7 29.92S  
WASHINGTON DC MOCLDY 54 53 97 CALM 29.61R  
 
CLICK HERE TO GO TO PREVIOUS BULLETINS.

The Nexlab PR Page Main Text Page